TITAN 3C TRANSTAGE DEB, 1668

Orbit data source: Space-Track

TITAN 3C TRANSTAGE DEB, 1668 is space debris in LEO originally from a launch on Fri, 15 Oct 1965 UTC launched from the Air Force Eastern Test Range (AFETR). Debris objects in space refer to the collection of defunct objects orbiting the Earth. Examples of debris include non-operational satellites, rocket bodies, and fragments generated from explosions, collisions, or faulty payload assembly.

Loading next visibility...
Identifier
1668, 1965-082AF
Orbit
LEO
Last TLE update
18 hours ago
Origin
Manufacturer
Unknown
Mission
Spacecraft
Bus & Motor
Unknown
Mass
370 kg wet, 370 kg dry
Launch date (UTC)
1965-10-15 (60 years ago)
Launch vehicle
Unknown
Launch site
Air Force Eastern Test Range (AFETR)
Object type
Payload
Rocket body
Debris
Shape & HBR
Unknown
Radar Cross Section
2.800 m², Large (>1 m²)

Expand to show TLE details & history

TLE from 18 hours ago
0 TITAN 3C TRANSTAGE DEB
1 01668U 65082AF  25181.61176436  .00000995  00000-0  11972-3 0  9999
2 01668  32.0663 161.9533 0014779 312.3338  47.6059 14.81106248166157
Epoch: 2025-06-30T14:40Z
TLE epoch observation values (Epoch: 2025-06-30T14:40:56.44Z)
Latitude
-0.00003°
Longitude
22.799°
Altitude
617.498 km
Speed
7.556 km/s
True Right ascension
10h 47m 48s
True Declination
0° 00' 00"
Sunlit
Object was in daylight at epoch
Visualization orbit readout
Latitude
7.65989°
Longitude
30.59071°
Altitude
617.885 km
Speed
7.556 km/s
Apparent Right ascension
10h 01m 55s
Apparent Declination
-16° 07' 16"
Sunlit
Object is in daylight
Visualization observer readout
Local Sidereal Time
20:10:34
Azimuth
306.514° NW
Elevation
-56.07°
Doppler factor
1
Orbital elements
Apogee altitude
639.826 km
Perigee altitude
619.113 km
Semi-major axis
7,007.607 km
Eccentricity
0.00148
Inclination
32.0663°
RAAN
161.9533°
Arg. of periapsis
312.3338°
True anomaly
Unknown
Mean anomaly
47.6059°
Eccentric anomaly
Unknown
Mean motion
3.69989 °/min
Orbital period
97.3 mins
BSTAR
0.00011972
Loading maneuver chart data...
Loading SW <> Apogee altitude chart data...

TITAN 3C TRANSTAGE DEB Visibility forecast

Observer location: undefined°, undefined°

Span
Click to sort rows by Start time (UTC) header in descending order
Start Az.
Max El. time (UTC)
Max El. Az.
Max El.
End time (UTC)
End Az.
6 mins2025-07-02 02:31:26.352Z208.642° SW2025-07-02 02:34:26.352Z164.011° S19.76°2025-07-02 02:37:26.352Z119.392° SE
6 mins2025-07-02 04:14:26.352Z225.722° WSW2025-07-02 04:16:26.352Z188.956° SSW26.617°2025-07-02 04:20:26.352Z120.227° SE
5 mins2025-07-02 05:57:26.352Z227.031° WSW2025-07-02 05:59:26.352Z190.245° SSW22.252°2025-07-02 06:02:26.352Z144.322° SSE
|